GFSNW_con_lsi_144.txt.gz
Lid_Strength_Index
2 2 2 2 2 3 7 10 14 8 7 13 14 16 11 9 10 10 10 11 12 14 13 14 14 13 12 9 9 12 12 14 18 16 12 12 14 16 16 19 20 20 20 19
3 2 2 2 3 3 9 12 12 8 10 17 16 12 11 10 11 11 11 11 11 11 13 15 13 13 10 9 10 12 11 15 19 17 15 14 16 15 16 17 18 19 20 19
3 2 2 2 3 3 8 11 14 12 12 14 14 14 13 12 10 11 11 11 11 12 13 12 14 14 10 10 10 7 9 14 17 19 17 16 16 15 15 16 20 20 19 19
3 3 2 2 3 3 8 12 15 14 16 15 15 14 12 14 13 11 12 13 13 13 15 14 15 13 12 10 9 11 11 14 17 16 15 14 15 15 15 16 17 18 19 18
3 3 2 2 3 3 10 11 12 14 15 14 15 14 14 13 13 12 14 14 13 13 14 14 14 13 13 13 12 13 13 15 16 18 16 16 16 15 15 15 16 17 17 17
3 3 2 2 3 5 11 11 11 12 14 15 16 16 15 13 12 13 12 13 14 14 13 13 14 13 13 14 13 14 15 16 16 18 18 17 18 18 16 15 15 15 17 15
2 3 2 2 3 6 10 10 10 12 14 16 15 14 14 13 13 14 13 12 14 13 12 12 13 14 13 13 14 14 16 16 17 21 20 22 17 17 16 15 15 14 15 14
2 2 3 3 3 5 10 10 10 13 15 15 15 14 14 15 15 14 13 13 12 12 14 16 17 17 17 15 14 14 15 17 20 21 22 19 19 18 17 16 17 13 13 14
2 3 3 3 3 4 9 10 10 12 14 14 14 14 15 16 17 17 15 12 11 13 15 17 20 21 20 19 18 15 14 16 17 19 21 22 19 16 16 17 19 17 14 15
2 2 3 3 3 4 9 10 10 11 13 13 14 14 14 15 16 16 16 16 14 14 16 18 19 20 18 19 20 19 18 18 20 20 21 19 17 15 15 20 18 16 15 15
3 3 3 3 4 4 8 10 10 11 13 13 12 12 14 15 15 16 15 15 16 17 17 18 18 20 19 20 19 19 18 20 20 20 22 23 15 16 17 16 16 15 15 15
3 3 3 2 3 4 7 10 9 10 12 12 11 12 13 13 13 14 15 16 15 15 18 19 19 18 20 20 21 20 20 18 19 18 18 16 15 15 15 15 14 15 15 15
4 3 3 3 3 4 6 9 10 11 13 12 12 13 12 11 12 12 14 15 14 15 15 17 18 19 19 20 20 20 18 17 17 17 16 16 15 15 14 14 15 15 15 15
4 3 3 3 2 4 6 9 9 11 12 15 14 11 13 12 12 12 12 13 13 14 15 16 18 18 17 19 19 19 18 18 18 18 17 17 16 16 16 16 16 17 17 17
3 3 3 3 4 5 8 10 10 10 12 14 14 13 13 12 13 13 13 13 14 15 16 17 17 17 17 19 19 20 18 18 18 17 16 16 16 16 15 16 16 16 16 16
3 4 3 4 4 6 9 12 11 10 11 14 16 14 15 14 13 13 14 14 14 15 16 17 17 16 17 19 19 16 17 17 16 16 16 16 16 17 16 16 16 16 16 16
3 3 3 4 5 7 10 12 10 9 11 14 17 17 14 14 15 15 15 15 16 15 16 17 17 17 16 18 19 16 16 16 16 17 16 17 17 17 17 16 16 15 17 17
4 3 3 3 5 7 9 10 8 10 12 14 19 18 16 13 16 16 16 16 16 16 17 17 17 17 17 18 15 17 16 16 17 17 17 17 17 17 17 17 17 17 17 17
5 4 3 6 7 9 9 7 9 11 13 17 18 19 18 14 16 16 16 17 18 17 18 18 17 18 19 15 15 16 16 16 17 18 18 18 18 18 17 18 18 18 18 18
4 5 7 10 8 6 7 10 12 13 13 15 18 16 18 15 17 17 18 18 18 22 18 17 17 18 15 14 15 15 15 16 17 18 18 18 19 18 18 18 17 17 18 18
6 9 11 9 7 9 10 13 14 14 15 15 15 17 17 15 17 17 17 20 19 23 21 19 19 19 16 15 16 15 15 16 16 16 16 16 16 17 18 18 18 17 17 17
8 9 8 9 11 12 13 14 14 15 16 16 16 16 15 16 15 16 17 19 18 22 18 18 20 17 16 16 17 16 16 15 16 16 16 16 16 16 17 17 17 16 16 16
7 10 13 13 13 15 15 17 16 16 17 16 15 16 16 16 16 17 18 20 19 18 18 20 19 17 17 16 17 17 17 16 16 16 16 16 16 16 16 16 16 16 16 16
11 13 15 15 16 16 16 17 17 16 17 14 16 16 16 16 17 17 21 18 18 20 22 21 19 17 16 16 16 16 16 16 17 16 16 15 16 16 15 15 15 16 16 15
11 12 15 14 13 16 16 19 18 15 14 16 15 15 15 16 16 17 17 19 20 19 21 18 17 16 15 16 16 16 16 16 16 17 17 18 17 17 16 16 16 16 15 15
10 11 13 13 14 15 15 16 15 14 13 14 13 15 17 17 17 17 18 19 21 18 17 16 16 16 16 16 15 15 16 16 16 16 16 15 16 16 16 16 16 16 16 16
11 12 11 14 15 13 14 15 15 13 13 14 14 17 17 16 17 18 17 20 17 15 16 17 15 15 15 15 14 15 15 16 16 16 15 15 15 18 20 19 16 16 16 16

GFSNW_con_lsi_150.txt.gz
Lid_Strength_Index
3 3 3 3 3 4 5 5 8 5 5 9 11 10 10 8 9 8 8 8 9 11 10 11 11 11 10 7 7 10 9 10 13 12 9 9 10 11 11 12 14 13 14 13
2 3 4 3 4 4 5 6 7 5 6 11 11 10 9 8 9 8 9 9 8 9 10 12 11 10 8 7 8 9 8 11 15 13 12 10 11 11 12 11 11 14 14 13
2 3 4 3 4 4 5 7 9 8 7 10 11 12 10 11 8 9 8 9 8 10 11 10 11 10 8 8 7 7 7 11 12 14 13 11 12 12 12 11 12 13 13 13
2 3 4 4 4 4 5 7 8 8 9 10 11 11 11 11 11 9 9 10 10 10 11 11 11 10 9 8 8 9 9 12 12 12 12 12 12 12 12 12 12 13 13 13
2 3 4 4 4 4 6 7 9 9 9 10 11 11 12 11 11 10 11 11 11 10 11 11 12 11 10 10 9 10 10 12 12 13 13 13 13 12 12 12 13 13 13 13
2 3 4 4 4 5 6 7 8 8 10 11 11 11 12 12 10 10 10 11 10 11 10 10 9 9 10 10 10 11 11 12 12 14 14 14 14 12 12 12 11 11 13 10
2 3 4 4 4 5 6 7 7 9 10 10 10 12 12 12 12 11 10 10 11 10 9 9 9 9 10 10 11 11 12 12 13 14 14 17 12 13 12 11 11 11 11 11
3 3 3 4 4 5 6 7 7 8 10 10 11 11 11 12 11 12 11 10 9 9 11 12 14 12 12 12 11 12 12 12 14 15 15 13 14 14 13 13 13 11 11 10
3 3 3 3 3 4 6 6 7 8 10 10 10 10 10 11 12 12 12 11 10 10 11 13 16 16 15 16 13 11 13 12 13 15 17 17 14 12 12 12 14 12 12 12
3 3 3 3 3 3 5 6 6 7 9 9 9 9 10 10 12 12 12 11 12 11 12 14 15 15 14 16 16 15 13 14 15 15 16 14 12 12 11 15 14 12 11 11
3 3 2 2 2 3 5 6 7 6 8 9 9 9 10 10 11 11 12 12 13 13 15 15 14 15 14 15 14 14 14 14 14 15 15 16 12 13 13 12 11 11 11 11
3 3 2 2 3 4 5 7 7 7 8 9 9 9 9 9 9 10 11 12 12 11 13 15 15 16 16 15 15 15 15 13 14 13 12 12 11 11 11 11 11 11 11 11
3 3 3 2 2 3 5 7 8 8 9 9 10 10 9 9 8 8 10 11 11 12 12 12 13 16 15 16 16 15 14 13 14 14 11 12 11 10 10 10 10 10 11 11
3 3 3 2 2 3 6 7 7 8 9 11 11 9 10 9 9 9 9 10 11 11 11 12 13 14 14 15 15 16 14 15 14 14 12 11 11 11 10 10 10 11 11 11
3 3 3 3 3 4 6 7 7 7 9 11 11 10 10 10 10 10 10 10 10 11 12 13 13 13 15 14 15 15 14 14 14 13 12 12 12 12 12 12 12 12 13 13
3 3 3 3 3 5 6 8 8 8 8 10 12 11 11 10 10 11 11 10 10 11 12 13 13 13 14 15 15 12 13 12 11 11 13 12 12 12 12 12 12 13 12 12
4 3 3 3 4 6 7 9 8 8 8 11 12 13 11 11 12 12 11 11 11 11 12 13 13 13 13 14 15 12 12 12 13 13 12 13 13 13 13 13 13 13 13 13
5 4 3 3 4 6 8 8 7 8 10 11 14 15 14 11 13 14 13 13 12 13 13 14 14 14 14 16 13 13 13 13 14 14 13 13 14 14 15 14 14 15 15 15
4 4 3 5 6 8 9 7 8 9 10 12 14 14 15 13 14 13 14 13 15 14 15 15 15 15 16 13 12 13 13 13 13 14 15 15 15 15 15 15 15 15 15 15
5 5 6 9 8 6 7 9 11 12 10 13 14 14 15 13 14 15 15 15 15 17 15 15 16 16 13 12 12 12 12 13 14 15 16 16 15 15 15 15 14 14 14 15
7 11 11 8 6 8 9 13 13 14 14 13 13 14 15 13 15 15 14 16 16 17 17 16 17 17 14 13 13 13 11 12 13 13 13 13 13 14 14 15 14 14 14 15
8 9 8 8 10 12 13 14 14 14 14 14 15 15 14 14 13 14 16 16 17 18 16 17 18 14 13 14 13 13 12 13 13 13 13 13 13 13 14 14 14 14 14 14
7 10 12 13 13 14 14 16 15 14 14 14 15 15 14 15 14 15 16 17 17 16 18 18 15 13 14 14 14 14 13 13 13 14 13 14 14 14 14 14 14 14 14 14
11 12 14 14 15 14 13 13 13 15 14 14 14 15 14 14 15 15 17 17 16 19 20 18 13 13 13 13 13 14 14 13 14 14 14 14 14 14 14 13 14 14 14 14
11 11 15 14 13 13 14 15 14 14 12 13 14 14 14 15 16 16 17 18 19 18 17 14 13 14 14 13 14 13 13 13 14 14 15 15 15 14 14 14 13 12 13 13
11 11 13 12 13 13 13 14 14 12 12 13 12 14 15 15 15 17 18 18 18 15 14 13 14 13 14 13 13 13 13 13 14 14 13 14 14 14 13 13 13 13 13 13
11 13 11 12 12 12 12 12 12 11 12 13 13 15 14 15 16 17 16 17 14 13 13 13 13 13 13 13 13 13 14 14 14 14 13 13 14 14 14 14 14 14 14 13

GFSNW_con_lsi_153.txt.gz
Lid_Strength_Index
1 2 3 3 3 4 5 4 8 4 3 7 8 10 9 8 8 7 8 8 9 10 9 10 11 11 9 6 7 10 8 10 13 12 9 8 9 10 10 13 14 12 13 13
1 2 2 3 3 4 5 7 6 4 4 10 9 9 9 8 8 8 8 9 8 8 10 12 10 9 7 6 8 9 8 11 15 13 10 9 10 10 11 10 11 13 14 13
2 1 2 2 3 4 5 7 9 8 7 5 9 10 11 9 7 8 7 8 7 8 10 9 10 10 8 7 7 6 7 10 12 15 13 10 12 10 10 10 13 12 12 12
1 2 1 2 3 3 5 7 8 6 9 8 8 9 10 11 10 8 8 9 9 9 11 10 10 9 9 7 7 7 8 12 11 11 11 11 11 10 10 11 10 12 12 12
1 1 2 2 2 3 6 7 9 7 8 9 8 9 11 11 10 9 10 10 9 9 11 10 11 10 10 9 8 9 9 12 11 13 11 12 13 10 10 10 11 11 11 12
1 2 2 2 2 4 6 6 7 7 8 9 9 9 10 11 10 9 8 9 10 10 9 8 7 7 8 8 10 9 10 11 12 14 12 12 14 11 11 11 10 10 12 10
2 2 2 2 2 4 5 6 7 7 10 9 9 9 10 11 10 11 10 9 10 8 8 8 8 7 8 8 10 9 10 11 11 14 13 17 11 11 11 10 10 9 10 10
2 2 3 3 3 3 5 6 7 7 9 8 9 9 9 10 10 11 11 10 9 7 9 10 12 12 12 10 11 10 10 10 12 14 14 11 12 13 12 11 11 9 10 9
2 2 3 3 3 4 6 6 5 6 8 8 9 9 8 9 10 11 11 10 9 9 10 12 15 15 14 15 13 11 11 10 12 13 15 16 13 11 11 11 14 11 11 11
2 2 3 3 3 4 5 6 5 6 8 7 8 8 8 7 9 10 10 11 11 11 12 14 14 14 13 15 15 14 13 12 14 13 15 12 11 11 10 15 14 11 10 10
2 2 3 3 3 4 5 5 5 5 6 6 8 8 8 8 8 10 10 10 11 12 14 15 14 14 13 14 12 13 13 13 13 13 14 15 10 11 13 11 10 10 10 10
2 2 3 3 4 4 5 5 5 5 7 7 7 7 7 8 8 8 8 10 10 10 12 12 13 15 14 14 14 12 14 11 12 12 11 11 10 10 9 9 9 9 9 10
2 2 2 3 3 3 4 4 5 5 6 6 8 8 8 7 7 7 8 8 9 10 10 11 12 14 13 15 14 14 12 11 12 13 10 10 10 9 9 9 9 9 9 9
2 2 2 3 3 3 4 5 5 6 7 9 9 8 9 8 8 8 8 8 8 8 10 11 12 14 12 13 14 15 13 13 13 12 10 9 9 9 9 9 9 10 10 9
2 2 3 3 3 3 4 5 5 5 7 10 10 9 9 8 8 8 8 8 9 9 10 11 12 12 13 13 14 14 12 13 14 12 10 10 10 10 10 10 10 10 10 11
3 3 3 3 3 5 6 7 6 5 6 8 11 10 10 10 9 9 9 8 9 9 10 10 11 12 13 14 14 10 11 10 9 11 11 11 11 11 11 11 11 11 11 11
4 3 3 3 4 5 7 8 6 6 6 9 11 11 11 10 10 9 9 9 9 9 10 11 11 12 12 13 14 10 10 10 11 11 11 12 11 11 11 11 11 11 11 11
5 4 3 3 4 5 7 7 6 6 8 9 12 13 13 10 12 12 9 10 10 11 11 12 12 12 13 15 12 11 11 12 12 12 12 12 12 12 12 12 13 13 14 14
4 4 2 4 6 7 8 6 7 7 8 11 12 13 14 12 12 11 11 10 13 12 13 13 13 13 15 12 12 11 11 12 12 12 13 13 13 14 14 14 14 14 15 14
4 5 6 9 7 6 6 8 10 11 9 10 12 11 14 12 13 13 13 13 13 15 14 13 15 15 12 11 10 10 11 11 13 14 15 14 14 14 14 14 13 13 14 14
7 10 11 7 5 7 9 13 13 13 14 12 11 12 14 13 14 14 12 14 14 16 15 16 15 16 13 12 12 12 10 10 11 11 11 12 12 13 13 13 13 13 13 14
7 9 8 8 9 12 13 13 13 14 13 13 14 14 13 14 12 13 15 15 16 17 15 16 17 13 12 13 13 12 11 10 11 11 11 11 11 11 12 12 13 13 13 13
6 9 12 12 12 14 14 15 14 13 12 14 14 15 14 14 13 14 15 16 16 15 17 17 14 12 13 13 13 13 12 12 12 12 12 12 12 12 12 13 13 13 13 13
9 11 12 13 13 13 12 12 11 13 12 12 12 14 14 14 15 15 15 16 16 18 19 17 12 13 13 12 12 13 13 12 13 13 13 13 14 13 13 12 13 13 13 13
9 11 14 12 12 11 12 13 13 13 11 12 13 13 13 15 15 15 16 18 18 17 16 13 12 13 14 13 13 12 12 12 12 13 14 14 14 14 13 13 13 12 13 13
9 10 12 11 11 11 11 12 12 11 11 11 11 13 14 14 14 17 17 17 17 14 13 12 13 13 13 13 13 12 12 12 12 13 13 13 13 13 13 13 13 13 13 13
11 10 10 10 11 12 11 11 11 11 12 12 12 14 14 14 15 16 15 15 13 12 12 12 12 13 13 12 12 13 13 13 12 13 13 13 13 13 14 14 13 13 13 13

GFSNW_con_lsi_156.txt.gz
Lid_Strength_Index
2 2 2 2 2 3 5 5 9 5 4 9 8 11 9 9 8 7 8 8 9 10 10 11 11 11 10 7 8 11 10 12 15 13 10 9 10 11 11 16 16 15 16 17
1 2 2 2 2 3 5 7 7 5 6 12 11 8 9 9 8 8 8 9 8 8 10 12 10 10 7 7 8 10 9 12 17 16 12 11 12 11 11 12 13 16 17 17
1 2 2 2 2 2 5 7 10 9 9 8 9 10 10 11 8 8 7 8 8 9 11 10 11 11 8 7 7 6 7 11 13 17 16 13 13 12 11 12 16 14 16 15
1 1 2 3 2 2 4 7 9 8 11 10 8 9 9 11 11 9 8 9 9 10 12 11 11 9 9 8 7 8 9 14 13 12 11 12 12 12 12 13 12 15 15 14
1 2 2 2 3 2 5 7 9 9 11 10 10 9 10 11 11 11 10 10 9 10 12 11 12 10 10 11 9 10 9 13 12 14 12 13 14 12 12 12 12 12 13 13
1 2 2 3 3 3 5 5 6 9 10 11 11 10 9 10 10 10 10 10 11 11 10 9 10 9 9 10 11 10 11 12 14 17 14 14 16 13 12 12 11 11 14 12
1 2 2 3 3 3 4 5 6 9 12 11 10 9 9 9 10 12 10 11 12 10 9 9 10 9 9 9 11 10 12 13 14 16 16 20 13 13 11 11 10 10 11 11
1 2 2 2 2 3 4 5 7 9 11 11 9 9 10 10 10 11 11 10 10 10 11 12 14 13 13 12 11 12 11 13 15 17 17 14 14 14 13 12 12 11 11 10
1 1 2 2 2 2 4 5 5 8 10 12 9 10 10 11 11 11 11 10 10 11 12 14 18 18 18 17 15 12 12 12 15 16 18 19 15 14 12 12 15 13 12 12
1 2 2 2 2 2 5 5 5 7 10 10 10 10 10 9 10 11 11 11 12 12 14 16 18 17 15 18 18 17 15 15 16 16 17 15 13 13 12 18 16 12 12 11
1 1 2 2 2 3 5 6 6 7 9 9 9 8 10 10 10 11 11 11 12 13 15 16 16 18 16 17 15 15 15 16 16 16 18 19 12 13 15 13 13 12 12 12
1 1 2 2 2 2 3 6 6 7 10 9 7 8 8 9 9 10 10 11 11 11 14 15 16 17 16 17 18 15 17 14 15 14 14 13 12 13 12 11 12 13 12 12
1 1 1 2 2 3 4 6 7 8 10 8 8 9 9 7 8 8 11 10 10 10 11 13 14 16 15 17 16 17 15 13 15 15 13 13 12 12 11 12 12 12 11 11
1 0 1 1 2 2 4 6 7 8 8 11 10 7 9 8 8 9 9 10 10 10 11 12 14 15 14 16 15 16 14 15 15 14 12 12 12 12 11 11 11 11 11 11
3 1 1 2 2 2 4 6 6 6 8 10 9 9 9 8 9 9 10 10 10 11 13 13 14 14 15 15 16 17 15 15 15 15 13 12 13 12 11 11 12 11 12 12
3 1 1 2 2 3 5 8 6 6 6 9 11 10 10 10 10 10 11 10 11 11 12 13 13 13 14 16 16 13 14 13 12 13 13 13 12 12 13 12 12 12 12 12
4 1 1 2 2 4 7 8 7 5 6 9 12 14 12 11 11 11 11 11 11 11 11 13 13 13 14 15 16 13 13 13 13 13 13 14 13 13 13 12 12 11 13 13
3 3 2 2 3 4 7 6 5 6 8 10 14 14 14 11 13 14 11 13 13 12 13 13 14 14 15 17 12 13 13 14 14 14 14 14 14 13 13 13 14 14 15 15
3 3 3 3 5 7 8 6 6 6 8 13 14 16 16 12 13 13 13 13 16 14 15 14 14 16 17 14 13 13 13 13 14 14 15 15 15 15 15 15 15 16 16 16
4 4 6 9 6 5 5 7 9 10 10 11 12 13 16 13 13 14 15 14 15 19 16 15 17 16 12 12 12 12 13 13 14 16 17 16 16 15 15 15 15 15 15 16
6 9 11 7 5 7 9 13 13 13 14 12 12 13 15 12 14 15 14 16 16 20 18 17 17 16 14 13 14 14 13 13 13 13 13 14 14 14 15 15 14 14 15 15
6 8 7 8 9 12 13 13 13 14 14 13 13 14 13 14 13 14 15 16 17 21 17 19 19 15 15 14 15 14 14 13 13 13 13 13 13 13 14 14 14 14 15 15
6 8 11 12 13 14 14 16 14 15 13 14 14 15 14 14 13 15 15 17 17 16 19 20 16 15 15 15 15 15 15 14 13 14 13 13 13 13 14 14 14 15 15 15
9 11 13 13 14 13 13 14 13 13 12 13 12 14 14 14 14 15 16 16 17 20 23 20 15 15 16 15 14 14 15 15 15 15 14 14 15 14 14 14 14 15 15 15
10 11 14 12 12 12 13 13 13 13 11 12 13 13 13 14 15 14 16 19 20 20 20 17 15 15 15 15 15 15 15 14 14 15 16 17 16 16 15 15 15 15 15 15
9 11 12 11 12 12 12 12 13 12 11 12 12 13 14 15 14 17 17 19 21 19 18 17 15 15 15 15 14 14 14 13 14 14 14 15 15 15 15 15 15 15 15 16
12 11 10 11 11 11 11 11 12 11 11 12 12 14 14 15 16 17 16 18 17 16 16 16 15 15 15 15 14 14 14 14 14 14 15 15 15 16 17 16 15 16 15 15

GFSNW_con_lsi_159.txt.gz
Lid_Strength_Index
1 0 1 2 1 3 5 7 11 4 6 11 12 16 10 8 10 9 9 10 11 12 12 13 13 13 11 8 9 11 10 12 16 14 10 10 11 12 12 17 18 17 18 16
1 1 0 2 2 2 8 8 8 5 7 14 14 11 10 9 9 10 10 10 9 10 11 13 12 11 8 8 9 10 10 13 18 16 13 11 13 11 11 12 13 17 19 16
1 1 1 1 2 2 7 9 12 8 8 10 13 13 12 11 8 10 10 10 9 10 12 11 12 11 8 7 8 6 8 12 14 18 15 12 14 12 12 12 16 15 15 15
1 1 1 1 2 2 7 10 11 9 13 12 11 12 12 12 11 10 10 12 10 11 13 12 13 11 10 9 7 9 10 14 14 12 12 12 13 13 12 14 13 15 14 15
1 1 1 2 2 2 8 10 11 10 11 10 11 11 13 11 11 10 12 12 12 12 12 12 13 12 12 12 10 11 9 14 13 15 13 13 15 13 13 13 12 12 13 14
1 1 2 2 2 3 8 7 9 11 11 12 13 13 12 11 10 10 11 11 13 14 12 11 10 10 10 11 12 12 12 13 15 17 14 15 16 14 13 13 12 12 14 13
1 1 2 2 2 3 7 8 9 12 13 12 12 11 11 11 11 11 11 11 13 12 11 10 11 12 11 11 11 11 13 13 15 17 17 21 14 13 11 11 11 11 11 11
1 1 2 2 2 2 6 7 10 11 13 11 11 11 12 11 11 12 11 11 11 11 12 15 16 15 14 13 12 12 12 14 16 18 18 15 15 15 14 13 13 12 11 11
1 1 1 1 2 2 6 7 8 10 12 12 11 12 12 13 14 13 11 11 11 11 13 16 19 19 17 18 16 13 12 13 15 17 18 20 16 14 13 12 16 13 12 12
1 1 1 1 2 2 5 7 7 9 11 10 11 12 12 11 12 13 12 12 13 12 15 17 18 19 17 19 19 17 16 16 17 17 18 15 14 14 13 18 15 12 11 12
1 1 1 2 2 2 4 7 7 9 11 9 10 10 12 11 12 14 12 12 12 13 16 17 17 18 17 19 17 16 16 17 18 17 18 19 13 14 16 13 12 12 12 12
1 0 1 1 1 2 3 8 7 7 10 10 9 9 10 10 10 11 11 12 12 12 14 15 16 17 17 18 19 16 17 14 15 15 15 12 13 13 13 12 12 13 12 12
2 1 1 1 1 2 4 7 8 9 10 10 10 11 10 9 9 8 11 11 11 12 11 13 14 17 15 18 17 17 16 14 15 15 15 14 13 13 12 12 13 12 11 12
3 2 1 1 1 1 3 6 7 8 9 12 12 9 12 10 9 9 9 10 11 11 12 14 14 15 14 16 16 16 14 14 16 15 13 14 13 13 12 12 12 12 12 12
3 3 1 1 1 2 4 5 6 6 9 12 12 11 11 9 9 9 9 10 11 13 13 14 15 14 15 15 16 17 15 15 15 15 13 13 13 13 12 12 12 12 12 12
4 3 1 1 1 2 5 8 5 5 7 11 14 12 12 10 10 10 10 10 11 12 13 14 13 13 15 16 16 13 14 14 13 13 13 12 13 13 13 12 12 12 12 12
4 4 2 1 2 3 6 8 7 4 6 11 14 15 12 10 10 10 10 11 12 13 13 14 14 14 14 16 16 12 13 13 13 14 13 14 13 14 13 13 13 11 12 12
4 3 1 1 2 4 6 6 4 5 8 10 14 14 13 10 12 13 11 13 14 14 14 14 15 15 15 16 13 13 13 14 14 14 15 14 14 14 14 14 14 14 14 14
4 3 1 3 5 6 7 4 4 6 8 13 13 16 16 11 12 13 13 14 17 15 16 15 15 16 17 13 14 13 13 13 14 15 15 15 15 15 15 15 15 15 15 15
4 4 7 9 6 4 4 6 8 9 9 11 13 14 15 12 13 14 15 15 16 20 16 15 17 17 13 12 13 13 12 13 14 16 17 16 16 15 15 15 15 15 15 16
6 9 10 6 4 6 8 12 12 12 13 12 11 14 15 12 14 14 14 17 17 21 18 17 18 17 14 14 14 14 14 14 14 14 14 14 14 15 15 15 15 15 15 16
7 8 6 7 9 12 13 13 13 13 14 12 13 13 13 14 12 14 15 16 17 21 17 19 20 16 15 15 15 14 15 14 14 13 13 14 14 14 14 14 14 15 15 16
6 9 11 11 12 13 14 15 14 14 13 13 13 14 14 14 13 14 15 16 17 17 18 20 18 15 15 16 15 14 15 14 14 14 14 13 14 13 14 14 15 15 16 16
9 11 14 13 14 13 14 13 13 13 12 12 13 14 13 13 14 14 16 15 17 21 21 21 17 15 15 15 15 15 15 15 15 15 15 15 15 15 15 14 15 15 15 16
11 11 14 13 12 12 14 14 13 12 11 12 13 13 13 14 15 15 17 20 22 21 21 17 15 15 15 15 15 15 15 15 15 15 16 17 16 16 15 15 15 15 15 16
11 12 13 11 12 12 12 12 13 11 11 11 11 14 15 16 15 18 19 20 22 20 18 15 15 15 15 15 15 15 14 14 14 14 14 15 15 15 15 16 15 15 15 16
14 14 11 11 11 12 12 12 12 10 11 12 12 16 16 14 17 18 17 19 17 17 16 16 15 15 15 15 15 15 15 14 14 15 15 15 15 16 18 17 16 16 16 16